Weather History for Glendale Luke AFB, AZ

Change the Weather History Date:

Sunday, September 1, 2013

  Actual Average Record
Temperature  
Mean Temperature 92 °F -  
Max Temperature 103 °F 105 °F 115 °F (1950)
Min Temperature 82 °F 72 °F 59 °F (1962)
Cooling Degree Days 28    
Growing Degree Days 42 (Base 50)    
Moisture  
Dew Point 66 °F    
Average Humidity 42    
Maximum Humidity 67    
Minimum Humidity 26    
Precipitation  
Precipitation 0.00 in - - ()
Sea Level Pressure  
Sea Level Pressure 29.79 in    
Wind  
Wind Speed 5 mph (WNW)    
Max Wind Speed 12 mph    
Max Gust Speed -    
Visibility 9 miles    
Events      
Averages and records for this station are not official NWS values.
T = Trace of Precipitation, MM = Missing Value Source: NWS Daily Summary

Daily Weather History Graph

Daily Weather History Graph

Search for Another Location

Airport:

Trip Planner

Search our weather history database for the weather conditions in past years. The results will help you decide how hot, cold, wet, or windy it might be!

Date:

Astronomy

Sep. 01, 2013 Rise Set
Actual Time 6:03 AM MST 6:54 PM MST
Civil Twilight 5:38 AM MST 7:19 PM MST
Nautical Twilight 5:08 AM MST 7:49 PM MST
Astronomical Twilight 4:37 AM MST 8:20 PM MST
Moon 2:35 AM MST (9/1) 4:28 PM MST (9/1)
Length of Visible Light 13h 41m
Length of Day
12h 50m
Waning Crescent, 13% of the Moon is Illuminated
Sep 1
Waning Crescent
Sep 5
New
Sep 12
First Quarter
Sep 19
Full
Sep 26
Last Quarter

Hourly Weather History & Observations

Time (MST) Temp. Heat Index Dew Point Humidity Pressure Visibility Wind Dir Wind Speed Gust Speed Precip Events Conditions
12:58 AM 85.6 °F 89.1 °F 68.5 °F 56% 29.82 in 10.0 mi NE 4.6 mph - N/A   Clear
1:58 AM 85.1 °F 89.4 °F 70.0 °F 60% 29.81 in 10.0 mi North 3.5 mph - N/A   Mostly Cloudy
2:58 AM 85.3 °F 89.8 °F 69.8 °F 60% 29.81 in 10.0 mi NE 6.9 mph - N/A   Mostly Cloudy
3:58 AM 84.0 °F 87.6 °F 68.9 °F 60% 29.81 in 10.0 mi NNE 6.9 mph - N/A   Scattered Clouds
4:58 AM 83.5 °F 87.7 °F 70.0 °F 64% 29.82 in 10.0 mi North 3.5 mph - N/A   Clear
5:58 AM 82.2 °F 86.2 °F 70.2 °F 67% 29.83 in 10.0 mi North 5.8 mph - N/A   Clear
6:58 AM 82.9 °F 86.7 °F 69.4 °F 64% 29.84 in 10.0 mi NNE 5.8 mph - N/A   Clear
7:58 AM 86.4 °F 89.7 °F 68.0 °F 54% 29.85 in 10.0 mi NNE 6.9 mph - N/A   Clear
8:58 AM 88.9 °F 92.6 °F 68.0 °F 50% 29.85 in 10.0 mi Variable 4.6 mph - N/A   Clear
9:58 AM 92.5 °F 96.4 °F 67.5 °F 44% 29.84 in 10.0 mi Variable 1.2 mph - N/A   Clear
10:58 AM 94.5 °F 98.0 °F 66.6 °F 40% 29.83 in 10.0 mi Variable 2.3 mph - N/A   Clear
11:58 AM 97.3 °F 100.0 °F 64.6 °F 34% 29.82 in 10.0 mi South 5.8 mph - N/A   Clear
12:58 PM 99.5 °F 103.2 °F 65.8 °F 33% 29.81 in 10.0 mi WSW 6.9 mph - N/A   Clear
1:58 PM 100.6 °F 103.9 °F 64.6 °F 31% 29.78 in 10.0 mi South 9.2 mph - N/A   Clear
2:58 PM 102.0 °F 105.9 °F 64.9 °F 30% 29.75 in 10.0 mi WSW 6.9 mph - N/A   Clear
3:58 PM 103.3 °F 106.8 °F 63.9 °F 28% 29.72 in 10.0 mi WSW 8.1 mph - N/A   Clear
4:58 PM 102.9 °F 104.8 °F 61.3 °F 26% 29.70 in 10.0 mi WSW 11.5 mph - N/A   Clear
5:58 PM 102.4 °F 104.5 °F 62.1 °F 27% 29.70 in 7.0 mi West 6.9 mph - N/A   Clear
6:58 PM 100.2 °F 102.1 °F 62.4 °F 29% 29.72 in 3.0 mi West 5.8 mph - N/A   Haze
7:18 PM 98.6 °F 100.0 °F 62.6 °F 30% 29.77 in 4.0 mi WSW 4.6 mph - N/A   Haze
7:28 PM 98.6 °F 100.0 °F 62.6 °F 30% 29.77 in 2.5 mi WSW 5.8 mph - N/A   Haze
7:48 PM 96.8 °F 99.0 °F 64.4 °F 34% 29.78 in 8.0 mi West 6.9 mph - N/A   Clear
7:58 PM 97.3 °F 99.4 °F 63.5 °F 33% 29.74 in 10.0 mi WNW 4.6 mph - N/A   Clear
8:58 PM 96.6 °F 98.7 °F 63.7 °F 34% 29.75 in 10.0 mi West 3.5 mph - N/A   Clear
9:58 PM 94.5 °F 97.5 °F 66.2 °F 39% 29.77 in 10.0 mi NW 6.9 mph - N/A   Clear
10:58 PM 90.9 °F 94.0 °F 66.6 °F 45% 29.77 in 10.0 mi NW 5.8 mph - N/A   Clear
11:58 PM 90.7 °F 93.2 °F 65.8 °F 44% 29.76 in 10.0 mi NW 4.6 mph - N/A   Clear